International Skating Union - Official Site

Essent ISU World Cup Berlin
December 6-8, 2013

Draw | Lap Times | Index | World Cup

Referee: Ekaterina  PILSHCHIKOVA  (RUS)
Starter: Roman  DANILOV  (RUS)
StartTime: EndTime: Air Temp: Ice Temp: Humidity:
16:00 16:46 16.9℃ -4℃ 34.2
Result 3000m Ladies Division A
Rankings as of Dec 8 2013 5:18PM
Rank: No.: Name: Nation: Time: Behind: Points:
1 220 Martina  Sábliková CZE CZE 4:02.25200m - 20.39 - (20.3)
600m - 51.64 - (31.2)
1000m - 1:23.16 - (31.5)
1400m - 1:55.05 - (31.8)
1800m - 2:27.06 - (32.0)
2200m - 2:58.85 - (31.7)
2600m - 3:30.17 - (31.3)
3000m - 4:02.25 - (32.0)
100
2 232 Claudia  Pechstein GER GER 4:02.96200m - 20.58 - (20.5)
600m - 51.81 - (31.2)
1000m - 1:23.31 - (31.5)
1400m - 1:54.90 - (31.5)
1800m - 2:26.68 - (31.7)
2200m - 2:58.48 - (31.8)
2600m - 3:30.74 - (32.2)
3000m - 4:02.96 - (32.2)
0.71 80
3 281 Ireen  Wüst NED NED 4:03.50200m - 19.63 - (19.6)
600m - 50.33 - (30.7)
1000m - 1:21.48 - (31.1)
1400m - 1:52.86 - (31.3)
1800m - 2:24.51 - (31.6)
2200m - 2:56.42 - (31.9)
2600m - 3:29.68 - (33.2)
3000m - 4:03.50 - (33.8)
1.25 70
4 286 Katarzyna  Bachleda-Curus POL POL 4:03.90200m - 19.91 - (19.9)
600m - 50.90 - (30.9)
1000m - 1:22.13 - (31.2)
1400m - 1:53.84 - (31.7)
1800m - 2:25.65 - (31.8)
2200m - 2:57.86 - (32.2)
2600m - 3:30.68 - (32.8)
3000m - 4:03.90 - (33.2)
1.65 60
5 269 Antoinette  de Jong NED NED 4:04.01200m - 19.70 - (19.7)
600m - 50.02 - (30.3)
1000m - 1:21.17 - (31.1)
1400m - 1:53.16 - (31.9)
1800m - 2:25.15 - (31.9)
2200m - 2:57.78 - (32.6)
2600m - 3:30.77 - (32.9)
3000m - 4:04.01 - (33.2)
1.76 50
6 280 Jorien  Voorhuis NED NED 4:04.97200m - 19.90 - (19.9)
600m - 50.88 - (30.9)
1000m - 1:22.63 - (31.7)
1400m - 1:54.96 - (32.3)
1800m - 2:27.41 - (32.4)
2200m - 2:59.82 - (32.4)
2600m - 3:32.37 - (32.5)
3000m - 4:04.97 - (32.6)
2.72 45
7 285 Ida  Njåtun NOR NOR 4:06.00200m - 19.77 - (19.7)
600m - 50.23 - (30.4)
1000m - 1:21.73 - (31.5)
1400m - 1:53.64 - (31.9)
1800m - 2:25.97 - (32.3)
2200m - 2:58.73 - (32.7)
2600m - 3:32.24 - (33.5)
3000m - 4:06.00 - (33.7)
3.75 40
8 270 Linda  de Vries NED NED 4:06.66200m - 19.94 - (19.9)
600m - 51.40 - (31.4)
1000m - 1:23.10 - (31.7)
1400m - 1:54.88 - (31.7)
1800m - 2:26.88 - (32.0)
2200m - 2:59.34 - (32.4)
2600m - 3:32.60 - (33.2)
3000m - 4:06.66 - (34.0)
4.41 35
9 294 Olga  Graf RUS RUS 4:07.49200m - 21.38 - (21.3)
600m - 53.44 - (32.0)
1000m - 1:25.44 - (32.0)
1400m - 1:57.19 - (31.7)
1800m - 2:29.11 - (31.9)
2200m - 3:01.24 - (32.1)
2600m - 3:34.12 - (32.8)
3000m - 4:07.49 - (33.3)
5.24 30
10 241 Masako  Hozumi JPN JPN 4:08.36200m - 20.80 - (20.8)
600m - 51.86 - (31.0)
1000m - 1:23.38 - (31.5)
1400m - 1:55.31 - (31.9)
1800m - 2:27.72 - (32.4)
2200m - 3:00.67 - (32.9)
2600m - 3:34.31 - (33.6)
3000m - 4:08.36 - (34.0)
6.11 25
11 310 Jilleanne  Rookard USA USA 4:09.12200m - 20.35 - (20.3)
600m - 52.18 - (31.8)
1000m - 1:23.92 - (31.7)
1400m - 1:56.43 - (32.5)
1800m - 2:28.88 - (32.4)
2200m - 3:01.79 - (32.9)
2600m - 3:35.24 - (33.4)
3000m - 4:09.12 - (33.8)
6.87 21
12 289 Luiza  Zlotkowska POL POL 4:09.47200m - 20.67 - (20.6)
600m - 52.85 - (32.1)
1000m - 1:24.77 - (31.9)
1400m - 1:57.14 - (32.3)
1800m - 2:29.45 - (32.3)
2200m - 3:02.29 - (32.8)
2600m - 3:35.74 - (33.4)
3000m - 4:09.47 - (33.7)
7.22 18
13 242 Shiho  Ishizawa JPN JPN 4:09.50200m - 20.16 - (20.1)
600m - 51.44 - (31.2)
1000m - 1:23.57 - (32.1)
1400m - 1:56.57 - (33.0)
1800m - 2:29.61 - (33.0)
2200m - 3:02.75 - (33.1)
2600m - 3:35.99 - (33.2)
3000m - 4:09.50 - (33.5)
7.25 16
14 251 Nana  Takagi JPN JPN 4:09.52200m - 20.45 - (20.4)
600m - 52.73 - (32.2)
1000m - 1:24.72 - (31.9)
1400m - 1:57.24 - (32.5)
1800m - 2:29.69 - (32.4)
2200m - 3:02.62 - (32.9)
2600m - 3:35.84 - (33.2)
3000m - 4:09.52 - (33.6)
7.27 14
15 230 Bente  Kraus GER GER 4:13.09200m - 20.78 - (20.7)
600m - 52.25 - (31.4)
1000m - 1:24.21 - (31.9)
1400m - 1:56.58 - (32.3)
1800m - 2:29.86 - (33.2)
2200m - 3:03.84 - (33.9)
2600m - 3:38.29 - (34.4)
3000m - 4:13.09 - (34.8)
10.84 12
16 244 Ayaka  Kikuchi JPN JPN 4:13.33200m - 20.08 - (20.0)
600m - 51.13 - (31.0)
1000m - 1:23.20 - (32.0)
1400m - 1:55.72 - (32.5)
1800m - 2:28.97 - (33.2)
2200m - 3:03.46 - (34.4)
2600m - 3:38.31 - (34.8)
3000m - 4:13.33 - (35.0)
11.08 10